COSMOS 2251 DEB, 35885

Orbit data source: Space-Track

COSMOS 2251 DEB, 35885 is space debris in LEO originally from a launch on Wed, 16 Jun 1993 UTC launched from the Plesetsk Missile And Space Complex (PKMTR). The debris from Iridium 33, an American commercial communications satellite, has been tracked extensively since its accidental collision with the defunct Russian satellite Cosmos 2251 in 2009. This event, occurring at high speed in low Earth orbit (LEO), generated thousands of pieces of space debris, significantly increasing the risk of further collisions. The Iridium 33 debris cloud has impacted space traffic management and orbital debris mitigation strategies, making it a subject of ongoing study in space situational awareness.

Loading next visibility...
Identifier
35885, 1993-036ATY
Orbit
LEO
Country
Flag of CISCIS
Related business
Manufacturer
Unknown
Mission
Spacecraft
Bus & Motor
Unknown
Mass
Unknown
Launch date (UTC)
1993-06-16 (33 years ago)
Launch vehicle
Unknown
Launch site
Plesetsk Missile And Space Complex (PKMTR)
Object type
Payload
Rocket body
Debris
Shape & HBR
Unknown shape, 0.1 m
Radar Cross Section
Small (<0.1 m²)

Expand to show TLE details & history
Last TLE update: 11 hours ago

TLE from 11 hours ago
0 COSMOS 2251 DEB
1 35885U 93036ATY 26121.49434168  .00000752  00000-0  25780-3 0  9990
2 35885  74.0297  37.4192 0022869  89.1987 271.1787 14.37777396670241
Epoch: 2026-05-01T11:51Z
TLE epoch observation values (Epoch: 2026-05-01T11:51:51.121Z)
Latitude
Longitude
0.03041°
Altitude
768.166 km
Speed
7.47 km/s
True Right ascension
02h 29m 40s
True Declination
0° 00' 00"
Sunlit
Object was in daylight at epoch
Visualization orbit readout
Latitude
Unknown
Longitude
Unknown
Altitude
Unknown
Speed
Unknown
Apparent Right ascension
Unknown
Apparent Declination
Unknown
Sunlit
N/A
Visualization observer readout
Local Sidereal Time
06:24:06
Azimuth
Unknown
Elevation
Unknown
Doppler factor
Unknown
Orbital elements
Apogee altitude
779.806 km
Perigee altitude
747.142 km
Semi-major axis
7,141.611 km
Eccentricity
0.00229
Inclination
74.0297°
RAAN
37.4192°
Arg. of periapsis
89.1987°
True anomaly
270.91668°
Mean anomaly
271.1787°
Eccentric anomaly
271.04769°
Mean motion
3.59624 °/min
Orbital period
100.1 mins
BSTAR
0.0002578

Documentation

Showing up to 5 results
|